Location: Home
(42.5358°N, 72.7383°W)
Time: 05:34:45
(UTC-04:00)

COSMOS 2251 DEB - Pass Details

Date: 29 June 2022
Orbit: 769 x 1233 km, 74.1° (Epoch: 15 August)

Event Time Altitude Azimuth Distance (km) Brightness Sun altitude
Exits shadow 04:10:54 - 254° (WSW) 2,721 ? -10.2°
Reaches altitude 10° 04:11:19 10° 257° (WSW) 2,608 ? -10.1°
Maximum altitude 04:16:00 23° 308° (NW) 1,963 ? -9.5°
Drops below altitude 10° 04:21:07 10° 358° (N) 2,875 ? -8.8°
Sets 04:24:32 0° 13° (NNE) 3,919 ? -8.4°
